{"data":{"norad_id":40984,"intl_designator":"2015-060A","name":"TURKSAT 4B","alt_names":[],"object_type":"PAYLOAD","status":"ACTIVE","operator":null,"country":"TURK","launch_date":"2015-10-16","launch_site_code":"TYMSC","launch_vehicle":null,"mission":null,"orbit_class":"UNKNOWN","rcs_meters":null,"size_class":null,"mass_kg":null,"dimensions":null,"purposes":["comms"],"wikipedia_slug":null,"has_3d_model":false,"image_url":null,"decayed_at":null,"tle_current":{"epoch":"2026-09-20T03:28:26.736096Z","epoch_age_seconds":52687,"freshness":"FRESH","line1":"1 40984U 15060A   26263.14475389  .00000000  00000+0  00000+0 0  9995","line2":"2 40984   0.0236 145.7970 0002126  37.2590 278.0813  1.00271926 40054","mean_motion":1.00271926,"eccentricity":0.0002126,"inclination_deg":0.0236,"raan_deg":145.797,"arg_perigee_deg":37.259,"mean_anomaly_deg":278.0813,"bstar":0,"rev_number":4005,"period_min":1436.094884624,"perigee_km":35777.591220207,"apogee_km":35795.51964743,"semimajor_km":42164.692433819,"source":"CELESTRAK","updated_at":"2026-09-20T09:00:35.220601Z"}}}